[[{"header":{"parameterUnit":"m.s-1","parameterCategory":1,"la1":30.2991,"la2":30.254,"lo1":-89.0895,"lo2":-89.0444,"dy":0.0017,"dx":0.0017,"nx":28,"ny":28,"refTime":"2023-10-10T09:00:00:Z","depth":0,"parameterNumber":2,"parameterNumberName":"U-component_of_WINDS"},"data":[0,0,0,0,0,0,0,0,0,0,0,0,0,0,0,0,0,0,0,0,0,0,0,0,0,0,0,0,0,0,0,0,0,0,0,0,0,0,0,0,0,0,0,0,0,0,0,0,0,0,0,0,0,0,0,0,0,0,2.4935,2.4936,0,2.5009,2.501,2.5011,2.4971,2.4969,2.4967,2.4965,2.5037,2.5041,2.5044,0,0,0,0,0,0,0,0,0,0,0,0,0,2.4755,2.4759,2.4935,2.4936,2.4937,2.5009,2.501,2.5011,2.4971,2.4969,2.4966,2.4964,2.5036,2.504,2.5045,0,0,0,0,0,0,0,0,0,0,0,0,0,2.4832,2.476,2.4935,2.4926,2.4926,2.5009,2.501,2.5011,2.4972,2.4969,2.4966,2.4963,2.5034,2.504,2.5045,2.514,0,0,2.5063,2.5065,0,0,0,0,0,0,0,0,2.4827,2.4838,2.4927,2.4927,2.4927,2.4978,2.4973,2.5054,2.4972,2.4954,2.4965,2.4961,2.5019,2.5026,2.5046,2.5143,2.5147,2.5063,2.5067,2.5069,2.5071,0,0,0,0,0,0,0,2.4822,2.4835,2.4964,2.4928,2.4928,2.4917,2.4924,2.4988,2.5003,2.4956,2.4953,2.4962,2.5019,2.5041,2.5048,2.5148,2.5063,2.5068,2.5072,2.5074,2.5321,2.5324,0,0,0,0,0,0,2.4818,2.4831,2.4962,2.4967,2.4869,2.4922,2.4931,2.4964,2.5002,2.5005,2.4965,2.496,2.5033,2.5041,2.505,2.516,2.5069,2.5074,2.5078,2.5318,2.5322,2.5325,0,0,0,0,0,0,2.4814,2.483,2.4959,2.4898,2.4913,2.4929,2.4967,2.4967,2.4989,2.5009,2.5011,2.4985,2.5031,2.5042,2.5117,2.5162,2.5077,2.5082,2.5314,2.5319,2.5324,2.5382,0,0,0,0,0,0,2.4809,2.4829,2.4867,2.4899,2.4917,2.5027,2.497,2.4971,2.5,2.4994,2.5028,2.5031,2.5029,2.5109,2.5123,2.5168,2.5086,2.531,2.5316,2.5322,2.5376,2.5388,2.5398,0,0,0,0,0,2.4803,2.488,2.4869,2.4885,2.4964,2.5029,2.5039,2.5037,2.5004,2.504,2.5052,2.503,2.5156,2.5117,2.5132,2.518,2.5307,2.5315,2.5322,2.5371,2.5386,2.5398,0,0,0,0,0,0,2.4852,2.4885,2.4872,2.4963,2.4993,2.5022,2.5068,2.5053,2.5093,2.5087,2.5081,2.5089,2.5166,2.5181,2.5137,2.5271,2.5226,2.5236,2.5258,2.5272,2.5283,2.5276,2.5091,0,0,0,0,0,2.4874,2.4925,2.495,2.5028,2.5044,2.5054,2.5082,2.5077,2.5109,2.5121,2.5139,2.5169,2.5214,2.5245,2.5289,2.5379,2.5383,2.5419,2.543,2.5439,2.5447,2.5492,2.5506,2.5349,2.5349,2.5348,0,0,2.4918,2.4942,2.4975,2.5038,2.5061,2.5112,2.5065,2.5122,2.5158,2.513,2.52,2.5214,2.5247,2.5329,2.5366,2.5344,2.5492,2.5448,2.5455,2.5459,2.5501,2.5515,2.5529,2.5354,2.5353,2.5352,0,0,2.5025,2.505,2.5115,2.5139,2.5175,2.5181,2.5197,2.5228,2.5236,2.5307,2.5285,2.5329,2.5409,2.5432,2.5454,2.5567,2.5546,2.5582,2.5639,2.5682,2.5695,2.5705,2.5741,2.5755,2.559,2.559,2.5591,0,2.5075,2.5152,2.515,2.5208,2.5234,2.5211,2.5275,2.5298,2.5347,2.5364,2.5339,2.5437,2.5458,2.5543,2.557,2.5591,2.5605,2.5576,2.5693,2.5704,2.5714,2.5748,2.5763,2.5594,2.5594,2.5593,2.5593,0,2.521,2.5264,2.5312,2.5358,2.5391,2.5452,2.5456,2.5489,2.5482,2.5489,2.556,2.5584,2.563,2.5651,2.5645,2.5734,2.5719,2.5694,2.5648,2.5733,2.5765,2.5778,2.5599,2.5598,2.5597,2.5596,0,0,2.5349,2.5392,2.541,2.5429,2.5466,2.5506,2.5565,2.561,2.5636,2.5671,2.5717,2.5784,2.576,2.5786,2.5782,2.582,2.5903,2.579,2.5791,2.5807,2.5998,2.6013,2.6029,2.5891,2.5893,2.5896,2.5994,0,2.5454,2.5557,2.5555,2.5649,2.5696,2.5674,2.5725,2.5751,2.576,2.58,2.5809,2.5855,2.5823,2.5837,2.5875,2.5885,2.594,2.5878,2.593,2.5932,2.5919,2.6046,2.6064,2.6155,2.6006,2.6009,2.601,0,2.5591,2.5628,2.5727,2.5754,2.5774,2.5819,2.5858,2.5898,2.5927,2.593,2.5958,2.5947,2.6003,2.5958,2.6033,2.5991,2.6012,2.602,2.6024,2.6025,2.5974,2.6047,2.6185,2.6197,2.6031,2.6029,2.6028,0,2.5676,2.5752,2.582,2.5837,2.5872,2.5903,2.5919,2.5945,2.5971,2.6006,2.6022,2.6064,2.6085,2.6116,2.6115,2.6083,2.619,2.6146,2.6191,2.6191,2.6212,2.621,2.635,2.6233,2.6232,2.6232,2.6232,0,2.5792,2.5852,2.5858,2.5899,2.5965,2.5962,2.6026,2.6039,2.6062,2.6103,2.6088,2.6126,2.6125,2.6164,2.6164,2.6224,2.6235,2.6236,2.6235,2.6236,2.6235,2.6247,2.6239,2.6236,2.6235,2.6234,2.6234,0,2.5898,2.5905,2.5976,2.6002,2.601,2.6057,2.6078,2.6116,2.6123,2.6175,2.6187,2.6198,2.6242,2.6245,2.6297,2.6297,2.6368,2.6362,2.6358,2.6356,2.6399,2.6394,2.6549,2.6568,2.6442,2.6443,2.6444,0,2.5969,2.6014,2.6045,2.6072,2.6089,2.6133,2.6159,2.6158,2.6186,2.6221,2.6253,2.6297,2.6331,2.6402,2.6413,2.6452,2.6444,2.6496,2.6449,2.6447,2.6439,2.6435,2.6437,2.6503,2.6505,2.6506,2.6507,0,2.6094,2.6094,2.6133,2.6173,2.6205,2.6236,2.6265,2.6288,2.6289,2.6321,2.6366,2.6393,2.6445,2.6486,2.6524,2.6537,2.6521,2.6522,2.6534,2.6533,2.6527,2.6526,2.6378,2.6517,2.6516,2.6516,2.6515,2.6515,2.6181,2.6219,2.6246,2.6289,2.631,2.6337,2.6373,2.6384,2.6422,2.6464,2.6461,2.651,2.6535,2.6583,2.66,2.6637,2.6619,2.6637,2.6641,2.6645,2.6647,2.6524,2.6644,2.6644,2.6644,2.6644,2.6643,0,2.6301,2.6317,2.6357,2.6397,2.643,2.6414,2.6445,2.6473,2.6516,2.6541,2.6575,2.6625,2.6665,2.6679,2.6717,2.6743,2.6736,2.6753,2.6749,2.6751,2.6663,2.6647,2.6757,2.6757,2.6757,2.6757,2.6757,2.6757,2.6367,2.6429,2.6432,2.6503,2.6518,2.6566,2.6584,2.6608,2.6627,2.6684,2.6717,2.6726,2.6746,2.6785,2.6819,2.6822,2.6835,2.6854,2.6853,2.677,2.6758,2.6747,2.6732,2.6858,2.6858,2.6938,2.6938,2.6939]},{"header":{"parameterUnit":"m.s-1","parameterCategory":1,"la1":30.2991,"la2":30.254,"lo1":-89.0895,"lo2":-89.0444,"dy":0.0017,"dx":0.0017,"nx":28,"ny":28,"refTime":"2023-10-10T09:00:00:Z","depth":0,"parameterNumber":3,"parameterNumberName":"V-component_of_WINDS"},"data":[0,0,0,0,0,0,0,0,0,0,0,0,0,0,0,0,0,0,0,0,0,0,0,0,0,0,0,0,0,0,0,0,0,0,0,0,0,0,0,0,0,0,0,0,0,0,0,0,0,0,0,0,0,0,0,0,0,0,1.6695,1.6696,0,1.679,1.6791,1.6792,1.6756,1.6754,1.6752,1.675,1.6846,1.685,1.6855,0,0,0,0,0,0,0,0,0,0,0,0,0,1.6481,1.6485,1.6695,1.6697,1.6698,1.6789,1.6791,1.6792,1.6757,1.6754,1.6752,1.6749,1.6845,1.685,1.6855,0,0,0,0,0,0,0,0,0,0,0,0,0,1.6575,1.6487,1.6695,1.6691,1.6692,1.6789,1.6791,1.6792,1.6757,1.6754,1.6751,1.6748,1.6843,1.6849,1.6856,1.6963,0,0,1.6877,1.688,0,0,0,0,0,0,0,0,1.657,1.6583,1.6691,1.6692,1.6692,1.6758,1.675,1.685,1.6758,1.6732,1.675,1.6746,1.6819,1.6828,1.6853,1.6967,1.6972,1.6878,1.6882,1.6885,1.6887,0,0,0,0,0,0,0,1.6563,1.6578,1.6733,1.6692,1.6693,1.6683,1.6693,1.6769,1.6793,1.6734,1.6732,1.6744,1.6819,1.6846,1.6855,1.6973,1.6877,1.6884,1.6888,1.689,1.7175,1.7178,0,0,0,0,0,0,1.6557,1.6573,1.673,1.6735,1.6622,1.669,1.6701,1.674,1.6792,1.6797,1.6746,1.6742,1.6836,1.6847,1.6858,1.6983,1.6885,1.6891,1.6895,1.7172,1.7176,1.7179,0,0,0,0,0,0,1.6552,1.6571,1.6726,1.6654,1.6673,1.6697,1.6742,1.6744,1.6771,1.6801,1.6805,1.677,1.6834,1.6848,1.6936,1.6986,1.6894,1.69,1.7167,1.7173,1.7178,1.7237,0,0,0,0,0,0,1.6546,1.657,1.6612,1.6655,1.6677,1.6804,1.6745,1.6748,1.6783,1.6777,1.6824,1.6829,1.6832,1.6926,1.6943,1.6994,1.6906,1.7163,1.717,1.7176,1.7231,1.7244,1.7255,0,0,0,0,0,1.6539,1.6626,1.6614,1.6633,1.673,1.6807,1.6819,1.6822,1.6787,1.6828,1.6847,1.6827,1.6978,1.6935,1.6954,1.7008,1.716,1.7168,1.7175,1.7226,1.7241,1.7255,0,0,0,0,0,0,1.6589,1.6631,1.6619,1.6723,1.6761,1.6801,1.6854,1.684,1.6889,1.6882,1.6883,1.6894,1.6984,1.7005,1.6956,1.7112,1.7063,1.7075,1.7095,1.711,1.7122,1.7115,1.6911,0,0,0,0,0,1.6611,1.6671,1.6705,1.6793,1.6813,1.683,1.6864,1.6862,1.6902,1.6919,1.6944,1.6983,1.7038,1.7076,1.7129,1.7233,1.7241,1.7279,1.7291,1.7301,1.7311,1.7364,1.738,1.7205,1.7205,1.7205,0,0,1.666,1.669,1.6729,1.6804,1.6834,1.6894,1.6844,1.6911,1.6955,1.6929,1.7012,1.7032,1.7075,1.7171,1.7214,1.7191,1.7361,1.7311,1.7318,1.7323,1.7374,1.739,1.7405,1.721,1.7209,1.7209,0,0,1.6779,1.6809,1.6884,1.6914,1.6959,1.6969,1.6986,1.7027,1.7039,1.7123,1.7103,1.7155,1.7252,1.7282,1.7311,1.7435,1.7418,1.7453,1.7516,1.7567,1.7581,1.7593,1.7635,1.7651,1.7463,1.7463,1.7463,0,1.6833,1.6924,1.6924,1.6991,1.7024,1.7001,1.7075,1.7104,1.7165,1.7187,1.716,1.7278,1.7306,1.7406,1.7436,1.7461,1.7479,1.7448,1.7579,1.7591,1.7603,1.7643,1.7659,1.7467,1.7466,1.7466,1.7466,0,1.6987,1.705,1.7105,1.7162,1.72,1.7271,1.728,1.7319,1.7313,1.7325,1.7408,1.744,1.7498,1.7521,1.7517,1.762,1.7604,1.7578,1.753,1.7623,1.7661,1.7676,1.7472,1.7471,1.747,1.7469,0,0,1.7143,1.7196,1.7216,1.724,1.7286,1.7334,1.7401,1.7457,1.7489,1.753,1.7585,1.7666,1.7641,1.7673,1.7671,1.7716,1.7809,1.7684,1.7685,1.7705,1.7921,1.794,1.7958,1.7797,1.78,1.7803,1.7917,0,1.7263,1.7383,1.7383,1.7493,1.7549,1.7526,1.7584,1.7618,1.763,1.7678,1.7691,1.7747,1.7711,1.7729,1.7773,1.7789,1.7853,1.7781,1.7847,1.785,1.7837,1.7978,1.7999,1.8106,1.7932,1.7935,1.7936,0,1.7421,1.7465,1.758,1.7614,1.7637,1.7691,1.7739,1.7786,1.7822,1.7827,1.7861,1.7851,1.7917,1.7866,1.7957,1.7907,1.7934,1.7946,1.795,1.7956,1.7899,1.7987,1.814,1.8155,1.796,1.7958,1.7956,0,1.752,1.7609,1.7688,1.7709,1.7751,1.7788,1.7807,1.784,1.7872,1.7914,1.7934,1.7984,1.8011,1.8049,1.8051,1.8014,1.8141,1.8091,1.8146,1.8145,1.8174,1.8172,1.8332,1.8193,1.8193,1.8192,1.8192,0,1.7655,1.7725,1.7732,1.7781,1.7858,1.7856,1.7932,1.7948,1.7977,1.8026,1.8009,1.8056,1.8057,1.8105,1.8107,1.8179,1.8192,1.8197,1.8196,1.8198,1.8197,1.8216,1.8208,1.8196,1.8195,1.8195,1.8194,0,1.7779,1.7787,1.7871,1.7903,1.7912,1.7967,1.7993,1.8039,1.8047,1.811,1.8125,1.8139,1.8193,1.8199,1.8263,1.8264,1.8351,1.8344,1.8339,1.8337,1.8391,1.8385,1.8568,1.8591,1.8438,1.8439,1.844,0,1.7864,1.7917,1.7953,1.7985,1.8006,1.8058,1.8089,1.8088,1.8122,1.8164,1.8203,1.8256,1.8298,1.8385,1.84,1.8447,1.844,1.85,1.8447,1.8445,1.8438,1.8435,1.8439,1.8511,1.8513,1.8514,1.8515,0,1.8013,1.8013,1.806,1.8106,1.8144,1.8181,1.8216,1.8242,1.8245,1.8283,1.8338,1.837,1.8433,1.8484,1.853,1.8548,1.8532,1.8531,1.8546,1.8548,1.8542,1.8544,1.8366,1.8527,1.8526,1.8525,1.8525,1.8524,1.8119,1.8164,1.8195,1.8246,1.8271,1.8303,1.8346,1.8359,1.8405,1.8456,1.8452,1.8511,1.8542,1.8601,1.8622,1.8668,1.8648,1.867,1.8675,1.868,1.8684,1.8535,1.8676,1.8676,1.8676,1.8675,1.8675,0,1.8265,1.8283,1.833,1.8378,1.8417,1.8397,1.8433,1.8467,1.852,1.8549,1.859,1.8651,1.8699,1.8717,1.8763,1.8796,1.8789,1.8808,1.8805,1.8809,1.8701,1.8683,1.8813,1.8813,1.8813,1.8813,1.8812,1.8812,1.8346,1.842,1.8423,1.8508,1.8525,1.8583,1.8605,1.8633,1.8656,1.8724,1.8764,1.8775,1.8799,1.8846,1.8889,1.8893,1.891,1.8932,1.8932,1.8831,1.8817,1.8804,1.8787,1.8936,1.8936,1.9036,1.9037,1.9037]}]]